• Em Portugal
  • Lista de países
  • Para 7 dias
  • Temperatura da água
  • Mapas de satélite
  • Mapa do tempo
  • Widgets de tempo
  • user-avatar
    Iniciar Sessão

    Previsão horária em Leszczewek

    Hoje, 22 Junho, Sexta-feira

    Tempo Temperatura Precipitação Vento Pressão Humidade
    00:00 +13°C° 0 mm 5 m/s 742 mmHg 94%
    01:00 +12°C° 0 mm 5 m/s 742 mmHg 94%
    02:00 +10°C° 0 mm 3 m/s 743 mmHg 94%
    03:00 +10°C° 0 mm 4 m/s 743 mmHg 94%
    04:00 +10°C° 0 mm 4 m/s 744 mmHg 94%
    05:00 +8°C° 0 mm 5 m/s 744 mmHg 93%
    06:00 +9°C° 0 mm 5 m/s 744 mmHg 88%
    07:00 +10°C° 0 mm 5 m/s 745 mmHg 83%
    08:00 +12°C° 0 mm 5 m/s 745 mmHg 77%
    09:00 +13°C° 0 mm 5 m/s 745 mmHg 70%
    10:00 +14°C° 0 mm 6 m/s 745 mmHg 64%
    11:00 +15°C° 0 mm 6 m/s 746 mmHg 57%
    12:00 +16°C° 0 mm 6 m/s 746 mmHg 55%
    13:00 +17°C° 0 mm 6 m/s 746 mmHg 52%
    14:00 +17°C° 0 mm 6 m/s 746 mmHg 50%
    15:00 +17°C° 0 mm 6 m/s 746 mmHg 51%
    16:00 +17°C° 0 mm 6 m/s 746 mmHg 53%
    17:00 +17°C° 0 mm 5 m/s 746 mmHg 54%
    18:00 +17°C° 0 mm 4 m/s 747 mmHg 60%
    19:00 +16°C° 0 mm 3 m/s 747 mmHg 67%
    20:00 +14°C° 0 mm 2 m/s 747 mmHg 73%
    21:00 +13°C° 0 mm 2 m/s 747 mmHg 76%
    22:00 +12°C° 0 mm 2 m/s 747 mmHg 80%
    23:00 +10°C° 0 mm 2 m/s 747 mmHg 83%

    Amanhã, 23 Junho, Sábado

    Tempo Temperatura Precipitação Vento Pressão Humidade
    00:00 +10°C° 0 mm 2 m/s 747 mmHg 84%
    01:00 +9°C° 0 mm 2 m/s 747 mmHg 85%
    02:00 +9°C° 0 mm 2 m/s 747 mmHg 86%
    03:00 +9°C° 0 mm 2 m/s 747 mmHg 87%
    04:00 +9°C° 0 mm 2 m/s 747 mmHg 87%
    05:00 +9°C° 0 mm 2 m/s 747 mmHg 87%
    06:00 +10°C° 0 mm 2 m/s 747 mmHg 81%
    07:00 +13°C° 0 mm 2 m/s 747 mmHg 75%
    08:00 +15°C° 0 mm 2 m/s 747 mmHg 69%
    09:00 +16°C° 0,1 mm 2 m/s 747 mmHg 64%
    10:00 +17°C° 0,1 mm 3 m/s 747 mmHg 60%
    11:00 +18°C° 0,1 mm 3 m/s 746 mmHg 55%
    12:00 +18°C° 0,4 mm 3 m/s 746 mmHg 57%
    13:00 +19°C° 0,4 mm 3 m/s 746 mmHg 59%
    14:00 +19°C° 0,4 mm 3 m/s 745 mmHg 61%
    15:00 +18°C° 0,6 mm 3 m/s 745 mmHg 65%
    16:00 +17°C° 0,6 mm 3 m/s 745 mmHg 69%
    17:00 +17°C° 0,6 mm 3 m/s 745 mmHg 74%
    18:00 +16°C° 0,4 mm 3 m/s 745 mmHg 79%
    19:00 +14°C° 0,4 mm 3 m/s 745 mmHg 84%
    20:00 +14°C° 0,4 mm 2 m/s 745 mmHg 89%
    21:00 +12°C° 0,1 mm 3 m/s 745 mmHg 91%
    22:00 +10°C° 0,1 mm 3 m/s 745 mmHg 93%
    23:00 +9°C° 0,1 mm 3 m/s 746 mmHg 94%

    Depois de amanhã, 24 Junho, Domingo

    Tempo Temperatura Precipitação Vento Pressão Humidade
    00:00 +9°C° 0 mm 3 m/s 746 mmHg 95%
    01:00 +8°C° 0 mm 3 m/s 746 mmHg 95%
    02:00 +8°C° 0 mm 3 m/s 746 mmHg 95%
    03:00 +7°C° 0 mm 3 m/s 746 mmHg 95%
    04:00 +7°C° 0 mm 3 m/s 746 mmHg 95%
    05:00 +7°C° 0 mm 3 m/s 746 mmHg 95%
    06:00 +9°C° 0 mm 3 m/s 746 mmHg 90%
    07:00 +10°C° 0 mm 3 m/s 746 mmHg 86%
    08:00 +12°C° 0 mm 3 m/s 746 mmHg 81%
    09:00 +13°C° 0,2 mm 3 m/s 746 mmHg 75%
    10:00 +14°C° 0,2 mm 3 m/s 747 mmHg 69%
    11:00 +17°C° 0,2 mm 3 m/s 747 mmHg 64%
    12:00 +17°C° 0,4 mm 4 m/s 747 mmHg 65%
    13:00 +17°C° 0,4 mm 4 m/s 747 mmHg 66%
    14:00 +17°C° 0,4 mm 4 m/s 747 mmHg 67%
    15:00 +17°C° 0,4 mm 4 m/s 747 mmHg 69%
    16:00 +17°C° 0,4 mm 4 m/s 747 mmHg 72%
    17:00 +17°C° 0,4 mm 4 m/s 747 mmHg 74%
    18:00 +15°C° 0,2 mm 4 m/s 747 mmHg 79%
    19:00 +14°C° 0,2 mm 3 m/s 747 mmHg 83%
    20:00 +14°C° 0,2 mm 2 m/s 747 mmHg 88%
    21:00 +13°C° 0 mm 2 m/s 748 mmHg 90%
    22:00 +12°C° 0 mm 2 m/s 748 mmHg 93%
    23:00 +10°C° 0 mm 2 m/s 748 mmHg 95%

    25 Junho, Segunda-feira

    Tempo Temperatura Precipitação Vento Pressão Humidade
    00:00 +9°C° 0 mm 2 m/s 748 mmHg 95%
    01:00 +9°C° 0 mm 2 m/s 749 mmHg 96%
    02:00 +8°C° 0 mm 2 m/s 749 mmHg 96%
    03:00 +8°C° 0 mm 2 m/s 749 mmHg 96%
    04:00 +8°C° 0 mm 2 m/s 749 mmHg 96%
    05:00 +8°C° 0 mm 2 m/s 749 mmHg 96%
    06:00 +10°C° 0 mm 2 m/s 750 mmHg 90%
    07:00 +13°C° 0 mm 2 m/s 750 mmHg 84%
    08:00 +14°C° 0 mm 2 m/s 750 mmHg 79%
    09:00 +15°C° 0 mm 2 m/s 750 mmHg 70%
    10:00 +17°C° 0 mm 2 m/s 750 mmHg 61%
    11:00 +18°C° 0 mm 2 m/s 751 mmHg 52%
    12:00 +19°C° 0 mm 2 m/s 751 mmHg 51%
    13:00 +20°C° 0 mm 3 m/s 751 mmHg 50%
    14:00 +21°C° 0 mm 3 m/s 751 mmHg 49%
    15:00 +20°C° 0 mm 3 m/s 751 mmHg 51%
    16:00 +20°C° 0 mm 3 m/s 751 mmHg 53%
    17:00 +20°C° 0 mm 3 m/s 751 mmHg 55%
    18:00 +19°C° 0,1 mm 3 m/s 751 mmHg 63%
    19:00 +18°C° 0,1 mm 2 m/s 751 mmHg 71%
    20:00 +17°C° 0,1 mm 2 m/s 751 mmHg 78%
    21:00 +16°C° 0 mm 2 m/s 751 mmHg 82%
    22:00 +14°C° 0 mm 2 m/s 752 mmHg 86%
    23:00 +13°C° 0 mm 2 m/s 752 mmHg 90%

    26 Junho, Terça-feira

    Tempo Temperatura Precipitação Vento Pressão Humidade
    00:00 +13°C° 0 mm 2 m/s 752 mmHg 90%
    01:00 +13°C° 0 mm 2 m/s 752 mmHg 91%
    02:00 +13°C° 0 mm 2 m/s 752 mmHg 92%
    03:00 +13°C° 0,2 mm 2 m/s 752 mmHg 92%
    04:00 +13°C° 0,2 mm 2 m/s 752 mmHg 92%
    05:00 +13°C° 0,2 mm 2 m/s 752 mmHg 93%
    06:00 +14°C° 0,1 mm 2 m/s 752 mmHg 88%
    07:00 +15°C° 0,1 mm 2 m/s 753 mmHg 84%
    08:00 +16°C° 0,1 mm 2 m/s 753 mmHg 80%
    09:00 +17°C° 0,1 mm 2 m/s 753 mmHg 77%
    10:00 +18°C° 0,1 mm 3 m/s 753 mmHg 73%
    11:00 +19°C° 0,1 mm 3 m/s 753 mmHg 70%
    12:00 +20°C° 0,4 mm 3 m/s 753 mmHg 70%
    13:00 +20°C° 0,4 mm 3 m/s 752 mmHg 69%
    14:00 +21°C° 0,4 mm 3 m/s 752 mmHg 69%
    15:00 +20°C° 0,4 mm 4 m/s 752 mmHg 71%
    16:00 +20°C° 0,4 mm 4 m/s 752 mmHg 73%
    17:00 +20°C° 0,4 mm 4 m/s 752 mmHg 76%
    18:00 +19°C° 0,4 mm 4 m/s 752 mmHg 80%
    19:00 +18°C° 0,4 mm 4 m/s 752 mmHg 83%
    20:00 +17°C° 0,4 mm 4 m/s 752 mmHg 87%
    21:00 +16°C° 0,1 mm 3 m/s 752 mmHg 89%
    22:00 +14°C° 0,1 mm 3 m/s 752 mmHg 91%
    23:00 +13°C° 0,1 mm 3 m/s 752 mmHg 93%

    27 Junho, Quarta-feira

    Tempo Temperatura Precipitação Vento Pressão Humidade
    00:00 +12°C° 0 mm 3 m/s 752 mmHg 94%
    01:00 +12°C° 0 mm 3 m/s 752 mmHg 94%
    02:00 +11°C° 0 mm 3 m/s 752 mmHg 95%
    03:00 +11°C° 0 mm 3 m/s 752 mmHg 95%
    04:00 +11°C° 0 mm 3 m/s 752 mmHg 94%
    05:00 +11°C° 0 mm 3 m/s 752 mmHg 94%
    06:00 +12°C° 0 mm 3 m/s 752 mmHg 89%
    07:00 +14°C° 0 mm 3 m/s 752 mmHg 84%
    08:00 +17°C° 0 mm 4 m/s 753 mmHg 79%
    09:00 +18°C° 0 mm 4 m/s 752 mmHg 72%
    10:00 +19°C° 0 mm 4 m/s 752 mmHg 66%
    11:00 +21°C° 0 mm 4 m/s 752 mmHg 60%
    12:00 +21°C° 0,1 mm 5 m/s 752 mmHg 59%
    13:00 +22°C° 0,1 mm 5 m/s 752 mmHg 58%
    14:00 +23°C° 0,1 mm 5 m/s 752 mmHg 57%
    15:00 +22°C° 0,1 mm 5 m/s 752 mmHg 58%
    16:00 +22°C° 0,1 mm 5 m/s 751 mmHg 59%
    17:00 +22°C° 0,1 mm 5 m/s 751 mmHg 60%
    18:00 +21°C° 0 mm 4 m/s 752 mmHg 66%
    19:00 +20°C° 0 mm 4 m/s 752 mmHg 72%
    20:00 +19°C° 0 mm 3 m/s 752 mmHg 78%
    21:00 +18°C° 0 mm 3 m/s 752 mmHg 82%
    22:00 +16°C° 0 mm 3 m/s 752 mmHg 86%
    23:00 +14°C° 0 mm 3 m/s 752 mmHg 90%
    Mostrar mais